Location: Bjelajci
(45.0103°N, 16.1758°E)
Time: 09:18:17
(UTC+00:00)

Cosmos 1733 Rocket - Pass Details

Date: 14 July 2020
Orbit: 604 x 627 km, 82.5° (Epoch: 08 August)

Event Time Altitude Azimuth Distance (km) Brightness Sun altitude
Exits shadow 01:29:33 25° 194° (SSW) 1,236 4.1 -15.3°
Maximum altitude 01:32:03 80° 279° (W) 619 2.9 -15.0°
Drops below altitude 10° 01:36:23 10° 7° (N) 1,962 6.6 -14.6°
Sets 01:38:37 0° 8° (N) 2,871 7.6 -14.3°
